RH
79 76 73 72 74 77 76 73 75 74 64 61 71 82 85 85 84 82 79 75 73 76 80 79 81 91 99 101 98 95 92 92 93 94 93 90 86 84 87 87 83 76 71 67 64 63 63 67 71 73 71 67 66 67 68 67 66 65 65 68 72 72 69 67 65 65 63 61 57 52 47 44 41 38
82 81 79 79 79 83 86 81 79 78 70 62 66 76 85 87 85 84 82 78 75 78 82 85 87 90 95 99 98 94 91 90 92 93 91 91 90 88 88 89 87 82 77 73 70 68 66 67 71 74 74 71 67 67 67 67 67 68 67 68 71 71 69 68 67 66 65 62 59 55 51 49 47 44
84 83 83 85 84 85 87 86 85 81 73 67 64 68 79 86 87 86 84 81 80 80 82 88 94 95 94 97 98 96 93 90 91 91 89 88 89 90 89 89 89 87 82 78 74 72 70 70 72 73 75 74 71 69 68 67 68 69 69 69 71 70 69 68 67 64 63 61 59 56 53 52 51 48
86 85 84 85 85 85 85 85 86 84 79 74 68 66 73 81 86 88 87 85 82 82 82 85 91 96 96 96 96 94 91 87 87 88 88 87 86 87 87 87 88 90 88 83 79 77 75 74 74 74 75 75 74 72 71 70 69 69 71 71 71 70 69 68 68 65 63 61 59 58 55 55 54 50
89 90 88 84 82 83 83 82 85 85 82 79 74 71 71 76 83 87 88 87 85 83 84 84 88 93 96 96 95 93 90 87 84 85 87 87 85 83 84 87 88 90 92 90 85 83 81 79 78 77 77 77 77 76 74 73 71 69 69 72 74 72 69 68 67 66 66 63 61 60 58 58 56 53
91 91 90 86 82 81 82 82 83 81 80 80 77 74 71 71 77 84 86 87 87 85 84 84 89 93 94 95 95 94 93 91 88 86 87 88 86 83 83 86 89 91 93 94 92 89 86 84 82 81 80 80 81 81 80 77 75 70 67 70 75 76 72 70 67 65 65 65 63 62 60 60 58 55
92 90 89 88 87 86 84 82 82 82 82 81 76 72 69 68 73 79 83 85 86 86 85 83 86 93 96 95 94 94 94 95 94 90 86 87 87 86 85 85 89 91 93 95 96 94 91 88 86 84 84 82 81 82 86 87 82 75 68 66 72 78 78 74 68 63 62 62 62 61 59 58 57 55
93 91 88 88 92 93 91 87 85 85 84 79 73 68 65 63 67 73 78 82 83 85 86 84 82 87 93 96 96 95 94 94 95 93 90 89 89 90 90 88 87 90 93 95 96 96 94 91 88 86 85 84 83 86 93 95 89 81 74 68 70 78 81 78 71 65 61 60 60 59 56 54 54 54
94 94 91 89 92 94 93 91 89 85 81 77 73 68 64 61 63 69 75 80 82 85 86 85 82 82 86 92 96 96 94 92 92 93 92 91 90 90 92 92 90 88 92 95 96 96 95 93 91 89 86 84 86 90 96 98 95 90 81 73 69 73 76 76 73 68 64 61 59 58 56 52 52 54
95 95 94 92 92 93 94 92 90 86 83 79 74 71 67 64 64 69 73 75 79 84 85 85 85 85 83 85 89 93 94 93 92 91 91 91 90 88 89 91 92 91 92 94 95 96 96 95 94 93 90 86 87 93 98 99 99 97 89 79 71 69 70 71 71 70 67 64 61 58 54 51 50 54
95 96 95 93 92 93 94 93 90 86 83 80 76 74 73 70 67 66 69 73 75 78 80 81 82 83 83 82 83 87 91 94 94 92 90 88 86 85 85 86 88 91 93 93 94 95 96 95 94 94 93 90 89 95 100 100 100 100 96 88 78 71 69 67 67 69 68 65 62 57 52 48 46 48
93 94 95 94 92 93 95 94 92 87 83 81 80 78 76 73 68 63 64 70 75 75 76 78 78 79 80 81 81 82 84 86 86 86 86 85 84 85 85 85 86 87 90 92 94 94 93 93 92 91 92 91 90 94 99 100 100 100 99 96 88 79 72 67 64 66 66 62 59 56 52 48 45 43
95 95 95 95 94 95 96 95 93 89 86 83 81 80 77 73 69 64 60 63 69 71 70 72 74 75 77 78 80 81 79 74 72 75 80 84 85 86 87 86 86 86 86 88 90 93 94 93 92 89 88 88 88 90 97 100 100 100 100 99 95 87 78 71 66 65 63 60 58 57 56 54 50 47
99 98 97 96 96 97 97 96 94 92 89 86 85 83 80 76 71 66 61 58 60 64 65 65 67 68 68 70 72 75 74 72 72 75 78 81 83 85 85 84 83 83 83 83 84 86 90 93 94 93 89 88 86 86 93 100 100 99 100 100 97 91 85 77 71 67 64 62 62 61 60 59 57 54
100 100 100 99 99 100 100 99 98 96 94 92 89 86 83 81 78 72 66 59 56 58 60 63 63 62 59 59 60 62 65 68 72 73 74 78 81 82 81 79 78 78 78 80 82 83 85 87 90 92 93 92 89 85 88 95 98 98 100 101 98 94 90 85 80 75 73 71 71 69 67 65 62 60
99 100 100 100 100 100 101 101 101 100 99 97 95 91 86 82 79 76 72 66 61 57 56 58 61 58 54 52 52 52 54 59 64 67 69 73 76 77 77 76 75 75 76 79 81 82 83 83 84 85 87 90 92 89 87 89 91 94 96 98 97 95 93 91 87 84 83 81 80 79 77 74 70 67
99 98 99 99 100 100 101 101 101 100 99 98 97 95 92 86 81 78 76 75 72 67 61 57 55 54 54 51 47 48 53 56 60 62 63 64 66 69 72 73 75 77 79 81 82 81 81 82 81 81 82 84 87 88 88 87 86 86 88 88 89 90 92 93 91 90 89 88 87 85 83 80 76 71
99 98 98 97 97 99 99 100 100 99 99 99 98 97 96 93 89 85 83 80 79 77 72 66 60 58 57 52 48 52 57 58 57 57 56 56 59 63 68 73 78 82 82 82 83 82 80 80 80 80 81 81 82 84 86 87 87 85 85 85 86 89 92 94 95 95 94 92 91 90 88 85 80 75
83 83 82 81 82 83 83 85 86 87 87 88 90 90 91 91 90 90 89 86 85 85 83 78 75 72 69 64 61 62 62 60 58 57 55 54 56 61 68 73 77 79 79 80 80 80 79 80 81 80 80 82 82 83 85 88 89 88 86 86 88 90 93 95 96 98 98 95 94 93 91 88 86 84
73 72 71 71 70 69 69 69 69 69 70 69 70 71 72 73 74 75 78 79 81 86 89 88 87 86 84 80 78 77 75 70 65 62 60 59 57 59 63 66 69 71 73 75 77 78 78 79 80 80 81 82 83 84 86 88 90 90 88 88 89 89 91 92 94 96 98 98 98 96 92 87 87 88
75 76 77 78 77 76 75 74 72 71 70 68 67 65 63 62 60 58 58 60 63 69 74 79 82 86 89 90 91 92 92 87 80 73 67 64 62 60 59 59 61 64 69 72 75 77 77 78 80 82 83 83 84 85 86 87 89 90 89 89 90 90 90 91 91 92 94 95 97 96 92 87 85 85
85 87 87 87 86 85 86 85 84 83 80 77 75 73 72 69 63 59 57 56 56 57 59 61 64 68 75 83 89 95 99 99 95 87 79 75 72 66 61 58 57 59 63 67 70 73 75 76 79 82 84 86 87 88 89 89 90 90 89 89 89 90 92 93 93 92 91 91 91 91 90 88 87 87
92 93 93 92 92 91 92 92 92 92 90 87 84 82 81 77 72 71 70 68 65 65 63 60 58 58 61 66 72 81 89 94 95 92 90 90 85 76 70 67 64 60 57 59 64 68 70 72 76 80 83 86 89 90 91 93 94 94 93 92 91 91 92 94 96 97 95 94 93 92 92 93 93 93
94 95 94 93 91 91 91 92 93 94 95 94 92 90 86 80 79 83 85 81 78 78 75 70 66 64 64 65 67 70 75 79 81 83 87 90 90 89 86 82 75 66 60 61 64 64 64 67 70 73 77 81 85 88 91 93 94 95 96 96 96 95 94 95 96 97 98 98 99 98 98 98 98 98
94 92 88 85 83 82 81 80 81 83 86 90 92 90 85 82 85 91 92 89 86 86 84 80 73 69 70 70 70 71 71 72 74 75 77 79 82 87 91 89 84 76 71 72 72 66 63 65 68 70 72 75 77 80 85 89 91 92 94 94 94 95 96 97 96 96 97 98 98 99 99 99 99 99
89 86 83 82 79 76 73 72 73 75 79 84 88 88 87 88 91 92 94 94 93 90 88 85 78 72 71 70 70 70 71 71 73 74 74 73 74 76 81 85 86 82 81 83 80 71 65 65 66 67 70 72 73 74 77 82 85 87 89 91 91 93 94 95 95 95 95 96 96 97 97 97 97 97
82 80 78 76 72 68 69 75 80 82 83 87 90 91 94 96 96 94 94 96 95 91 88 85 80 74 70 69 69 68 67 67 69 70 71 71 72 72 72 74 78 82 86 89 85 78 73 70 68 66 66 68 71 71 72 74 77 80 83 85 87 88 89 90 92 93 92 93 93 94 94 94 93 93
79 76 73 71 67 64 69 80 85 85 88 93 96 97 99 101 100 98 97 97 96 92 87 83 80 75 71 71 71 69 67 67 68 68 69 68 69 70 69 68 70 75 80 83 81 79 78 76 74 73 71 70 69 68 68 69 71 76 80 82 83 83 82 83 87 90 93 93 92 92 92 92 91 91
81 76 70 67 64 62 69 79 84 86 91 96 99 100 101 102 101 99 98 99 99 95 88 84 81 77 75 74 72 69 68 69 69 70 72 72 72 72 70 68 68 68 71 73 74 75 75 74 75 75 75 74 73 71 71 70 70 73 76 78 80 81 81 80 81 83 87 90 91 91 91 91 91 91
84 78 71 66 64 63 67 73 79 85 92 97 99 99 98 100 100 99 98 99 99 96 92 89 85 82 80 78 74 71 71 71 71 72 73 75 76 75 73 71 69 67 67 68 68 69 70 72 74 74 73 73 73 73 74 75 75 75 75 75 76 77 77 77 77 78 80 82 83 83 83 84 86 87
83 80 73 67 64 64 66 69 74 81 87 92 95 95 95 97 97 96 95 97 98 98 96 93 88 86 86 84 81 79 79 78 76 75 74 75 75 75 75 74 71 68 68 68 69 69 68 68 69 70 70 70 70 70 73 76 77 78 79 79 77 75 73 71 71 72 72 73 73 72 71 72 75 77
84 80 75 69 66 66 67 68 71 75 79 83 86 88 91 94 93 91 92 94 95 95 95 93 91 90 89 86 84 83 83 82 81 78 75 74 74 74 74 74 73 72 73 74 75 76 76 74 73 71 71 71 70 70 72 74 75 78 80 82 82 79 77 74 72 69 67 65 63 61 61 62 64 66
86 82 77 72 69 69 68 67 69 72 74 76 80 82 86 88 89 89 89 90 92 92 93 92 92 90 88 85 84 84 83 83 82 79 77 77 78 80 80 80 81 82 84 85 85 85 85 83 80 78 77 78 77 76 74 72 71 74 77 80 81 81 79 77 74 71 67 65 63 61 59 59 58 59
88 86 84 78 72 71 71 71 71 74 75 75 76 78 81 83 85 87 89 89 89 90 89 88 86 85 83 82 82 81 81 81 81 80 80 82 86 89 90 91 91 92 94 93 93 93 92 88 84 82 81 82 83 84 82 78 75 74 73 72 72 74 75 75 73 71 69 67 67 66 64 63 62 62
91 90 90 86 78 75 75 75 75 77 78 79 80 80 80 81 82 84 85 86 86 86 85 84 83 82 82 81 81 81 81 82 84 85 88 91 94 97 98 98 99 98 98 97 96 96 95 92 89 87 85 84 85 86 87 86 84 80 75 71 68 69 70 70 70 70 71 71 71 71 69 68 68 67
91 92 93 92 87 81 79 80 81 82 82 85 87 87 86 84 84 85 86 86 85 85 85 85 84 84 83 84 85 86 88 90 92 94 96 98 99 100 99 99 99 98 96 95 95 95 94 93 92 90 88 86 84 84 85 86 84 81 77 74 72 72 72 71 69 68 68 68 69 69 68 67 68 69
91 91 91 94 93 90 86 85 86 88 89 90 90 90 89 87 87 87 88 88 88 88 88 88 89 90 91 92 94 96 97 99 100 101 101 100 99 99 97 97 96 96 95 95 95 94 94 94 94 92 91 90 88 86 86 87 86 83 81 79 78 77 75 72 69 66 65 63 62 62 62 62 65 69
92 91 90 91 94 96 95 93 91 91 93 93 92 92 91 90 89 90 90 91 92 92 92 93 93 94 95 95 96 98 99 100 101 101 101 100 100 98 97 96 96 96 96 97 97 97 97 96 96 96 96 96 94 92 92 90 87 85 83 81 80 79 76 74 72 71 69 67 64 63 63 63 64 67
94 93 92 91 92 94 98 98 97 96 94 93 93 92 92 91 91 91 91 92 91 91 91 91 91 92 92 93 95 96 98 100 101 101 101 101 101 100 99 99 99 98 99 98 98 99 99 98 98 99 99 98 96 94 92 90 86 84 83 82 82 83 82 80 79 77 75 73 71 70 70 69 69 70
95 95 95 94 94 94 95 97 98 98 98 96 95 94 93 93 92 91 91 90 90 90 90 90 91 92 93 95 97 98 98 99 99 99 99 100 100 100 99 100 100 100 101 101 100 99 99 98 98 98 96 94 91 90 89 88 87 86 87 87 87 86 84 81 79 77 76 75 74 72 71 71 71 71
96 96 96 96 96 96 96 96 96 96 97 97 96 95 94 94 94 94 93 92 91 92 94 95 95 96 98 99 99 99 98 98 97 97 98 98 99 99 99 99 100 100 100 100 100 99 98 96 95 93 91 89 89 89 89 88 87 87 86 85 83 81 79 77 76 75 74 74 73 72 71 71 70 69
96 97 97 97 97 96 96 96 95 96 96 94 93 92 91 89 87 86 85 84 84 86 89 92 92 93 93 94 93 93 94 93 93 93 94 95 97 98 98 98 100 100 100 100 99 97 95 93 91 90 89 89 89 88 87 85 84 83 81 79 78 76 75 74 74 73 73 74 74 73 72 72 71 69
96 96 96 96 95 95 94 93 92 92 91 89 87 86 84 81 78 75 73 70 68 70 76 81 83 83 83 83 82 83 85 85 85 86 88 89 91 93 94 96 97 99 100 101 100 97 95 92 90 89 88 86 85 84 82 80 78 77 76 75 75 74 74 74 74 74 73 73 73 73 72 73 73 71
95 94 94 93 92 90 89 87 86 85 85 84 83 82 81 78 76 75 72 68 63 61 64 69 72 74 74 73 72 72 73 74 75 76 77 78 80 82 83 85 87 88 91 91 89 87 85 84 83 81 79 77 75 74 72 72 72 73 73 74 73 73 74 74 74 74 73 73 73 73 74 74 74 73
92 89 87 86 85 84 83 82 81 81 81 80 80 80 79 77 75 74 71 66 61 56 55 57 61 64 65 65 65 64 64 65 65 66 66 68 68 69 70 71 72 72 72 69 67 66 66 67 68 70 70 70 70 70 70 71 72 72 73 73 73 74 75 76 75 75 74 73 75 76 77 77 78 77